When you browse on this site, cookies collect data to enhance your experience and personalize the content and advertising you see.
Visit our Privacy Policy to learn more. By continuing to use the site, you agree to this use of cookies and data.
  • în România
  • Lista ţărilor
  • Pe 7 zile
  • Temperatura apei
  • Hartă satelitară
  • Meteo pe hartă
  • Widget-uri
  • user-avatar
    Intrare

    Meteo pe oră la Krugloe

    Astăzi, 17 Noiembrie, Sâmbătă

    Timp Temperatura Precipitaţii Vânt Presiune Umiditate
    00:00 -2°C° 0 mm 3 m/s 764 mmHg 91%
    01:00 -2°C° 0 mm 3 m/s 764 mmHg 91%
    02:00 -3°C° 0 mm 2 m/s 763 mmHg 93%
    03:00 -4°C° 0 mm 3 m/s 763 mmHg 92%
    04:00 -4°C° 0 mm 3 m/s 762 mmHg 91%
    05:00 -4°C° 0 mm 3 m/s 762 mmHg 90%
    06:00 -3°C° 0 mm 4 m/s 761 mmHg 88%
    07:00 -3°C° 0 mm 4 m/s 761 mmHg 87%
    08:00 -3°C° 0 mm 4 m/s 761 mmHg 84%
    09:00 -2°C° 0 mm 4 m/s 760 mmHg 83%
    10:00 -2°C° 0 mm 4 m/s 760 mmHg 82%
    11:00 -1°C° 0 mm 4 m/s 759 mmHg 82%
    12:00 -1°C° 0.5 mm 4 m/s 758 mmHg 83%
    13:00 -1°C° 0.5 mm 4 m/s 758 mmHg 84%
    14:00 -1°C° 0 mm 4 m/s 757 mmHg 87%
    15:00 -1°C° 0.6 mm 4 m/s 756 mmHg 88%
    16:00 -1°C° 0.6 mm 4 m/s 756 mmHg 89%
    17:00 -1°C° 0.6 mm 4 m/s 755 mmHg 89%
    18:00 -1°C° 0.1 mm 4 m/s 754 mmHg 90%
    19:00 -1°C° 0.1 mm 4 m/s 753 mmHg 90%
    20:00 -1°C° 0.1 mm 4 m/s 752 mmHg 90%
    21:00 -1°C° 0.1 mm 4 m/s 752 mmHg 91%
    22:00 -1°C° 0.1 mm 4 m/s 751 mmHg 91%
    23:00 -1°C° 0.1 mm 4 m/s 751 mmHg 91%

    Mâine, 18 Noiembrie, Duminică

    Timp Temperatura Precipitaţii Vânt Presiune Umiditate
    00:00 -1°C° 0.1 mm 4 m/s 750 mmHg 92%
    01:00 0°C° 0.1 mm 4 m/s 749 mmHg 92%
    02:00 0°C° 0.1 mm 4 m/s 749 mmHg 93%
    03:00 +1°C° 0.2 mm 3 m/s 748 mmHg 94%
    04:00 +1°C° 0.2 mm 3 m/s 748 mmHg 94%
    05:00 +1°C° 0.2 mm 3 m/s 748 mmHg 95%
    06:00 +1°C° 0.2 mm 3 m/s 748 mmHg 95%
    07:00 +2°C° 0.2 mm 2 m/s 748 mmHg 96%
    08:00 +2°C° 0.2 mm 2 m/s 748 mmHg 97%
    09:00 +2°C° 0.1 mm 2 m/s 748 mmHg 97%
    10:00 +2°C° 0.1 mm 2 m/s 748 mmHg 97%
    11:00 +2°C° 0.1 mm 2 m/s 748 mmHg 97%
    12:00 +2°C° 0.1 mm 2 m/s 748 mmHg 97%
    13:00 +2°C° 0.1 mm 2 m/s 749 mmHg 97%
    14:00 +2°C° 0.1 mm 2 m/s 749 mmHg 98%
    15:00 +2°C° 0 mm 2 m/s 749 mmHg 98%
    16:00 +2°C° 0 mm 2 m/s 750 mmHg 98%
    17:00 +1°C° 0 mm 2 m/s 750 mmHg 97%
    18:00 +1°C° 0 mm 2 m/s 751 mmHg 97%
    19:00 +1°C° 0 mm 2 m/s 751 mmHg 97%
    20:00 +1°C° 0 mm 2 m/s 751 mmHg 97%
    21:00 +1°C° 0 mm 2 m/s 752 mmHg 97%
    22:00 +1°C° 0 mm 2 m/s 753 mmHg 97%
    23:00 +1°C° 0 mm 2 m/s 753 mmHg 97%

    Poimâine, 19 Noiembrie, Luni

    Timp Temperatura Precipitaţii Vânt Presiune Umiditate
    00:00 +1°C° 0.1 mm 2 m/s 754 mmHg 97%
    01:00 +1°C° 0.1 mm 2 m/s 754 mmHg 96%
    02:00 +1°C° 0.1 mm 2 m/s 755 mmHg 96%
    03:00 +1°C° 0.1 mm 2 m/s 755 mmHg 95%
    04:00 0°C° 0.1 mm 3 m/s 755 mmHg 95%
    05:00 0°C° 0.1 mm 3 m/s 756 mmHg 94%
    06:00 -1°C° 0.1 mm 3 m/s 756 mmHg 93%
    07:00 -1°C° 0.1 mm 3 m/s 756 mmHg 93%
    08:00 -1°C° 0.1 mm 3 m/s 757 mmHg 92%
    09:00 -1°C° 0 mm 3 m/s 757 mmHg 91%
    10:00 -1°C° 0 mm 3 m/s 758 mmHg 90%
    11:00 -1°C° 0 mm 3 m/s 758 mmHg 90%
    12:00 -1°C° 0 mm 3 m/s 759 mmHg 90%
    13:00 -1°C° 0 mm 3 m/s 759 mmHg 89%
    14:00 -2°C° 0 mm 2 m/s 759 mmHg 89%
    15:00 -2°C° 0 mm 2 m/s 759 mmHg 90%
    16:00 -2°C° 0 mm 2 m/s 759 mmHg 91%
    17:00 -3°C° 0 mm 2 m/s 759 mmHg 92%
    18:00 -3°C° 0 mm 2 m/s 759 mmHg 92%
    19:00 -3°C° 0 mm 2 m/s 759 mmHg 92%
    20:00 -3°C° 0 mm 2 m/s 759 mmHg 92%
    21:00 -2°C° 0 mm 1 m/s 759 mmHg 92%
    22:00 -2°C° 0 mm 1 m/s 759 mmHg 91%
    23:00 -2°C° 0 mm 1 m/s 759 mmHg 91%

    20 Noiembrie, Marţi

    Timp Temperatura Precipitaţii Vânt Presiune Umiditate
    00:00 -2°C° 0 mm 1 m/s 759 mmHg 91%
    01:00 -2°C° 0 mm 1 m/s 759 mmHg 91%
    02:00 -2°C° 0 mm 1 m/s 759 mmHg 91%
    03:00 -2°C° 0 mm 1 m/s 759 mmHg 90%
    04:00 -2°C° 0 mm 1 m/s 759 mmHg 90%
    05:00 -3°C° 0 mm 1 m/s 758 mmHg 90%
    06:00 -3°C° 0 mm 1 m/s 758 mmHg 90%
    07:00 -3°C° 0 mm 1 m/s 758 mmHg 91%
    08:00 -3°C° 0 mm 1 m/s 757 mmHg 91%
    09:00 -3°C° 0 mm 1 m/s 757 mmHg 88%
    10:00 -2°C° 0 mm 1 m/s 757 mmHg 86%
    11:00 -1°C° 0 mm 1 m/s 757 mmHg 83%
    12:00 -3°C° 0 mm 2 m/s 756 mmHg 84%
    13:00 -3°C° 0 mm 2 m/s 756 mmHg 84%
    14:00 -3°C° 0 mm 2 m/s 755 mmHg 85%
    15:00 -3°C° 0 mm 2 m/s 755 mmHg 86%
    16:00 -3°C° 0 mm 2 m/s 755 mmHg 87%
    17:00 -3°C° 0 mm 2 m/s 754 mmHg 88%
    18:00 -3°C° 0 mm 2 m/s 754 mmHg 87%
    19:00 -3°C° 0 mm 2 m/s 754 mmHg 87%
    20:00 -3°C° 0 mm 2 m/s 754 mmHg 87%
    21:00 -4°C° 0 mm 2 m/s 753 mmHg 87%
    22:00 -4°C° 0 mm 2 m/s 753 mmHg 88%
    23:00 -4°C° 0 mm 2 m/s 753 mmHg 88%

    21 Noiembrie, Miercuri

    Timp Temperatura Precipitaţii Vânt Presiune Umiditate
    00:00 -4°C° 0 mm 2 m/s 753 mmHg 89%
    01:00 -4°C° 0 mm 2 m/s 753 mmHg 89%
    02:00 -4°C° 0 mm 2 m/s 753 mmHg 89%
    03:00 -4°C° 0 mm 2 m/s 753 mmHg 90%
    04:00 -5°C° 0 mm 3 m/s 753 mmHg 90%
    05:00 -4°C° 0 mm 3 m/s 753 mmHg 90%
    06:00 -4°C° 0 mm 3 m/s 753 mmHg 89%
    07:00 -4°C° 0 mm 3 m/s 753 mmHg 88%
    08:00 -4°C° 0 mm 3 m/s 753 mmHg 88%
    09:00 -2°C° 0 mm 3 m/s 754 mmHg 86%
    10:00 -2°C° 0 mm 3 m/s 754 mmHg 84%
    11:00 -2°C° 0 mm 3 m/s 754 mmHg 82%
    12:00 -2°C° 0 mm 3 m/s 754 mmHg 81%
    13:00 -2°C° 0 mm 3 m/s 755 mmHg 81%
    14:00 -2°C° 0 mm 3 m/s 755 mmHg 81%
    15:00 -2°C° 0 mm 2 m/s 755 mmHg 83%
    16:00 -3°C° 0 mm 2 m/s 755 mmHg 85%
    17:00 -4°C° 0 mm 2 m/s 755 mmHg 88%
    18:00 -4°C° 0 mm 2 m/s 755 mmHg 89%
    19:00 -5°C° 0 mm 2 m/s 755 mmHg 91%
    20:00 -5°C° 0 mm 2 m/s 754 mmHg 92%
    21:00 -5°C° 0 mm 2 m/s 754 mmHg 92%
    22:00 -5°C° 0 mm 2 m/s 754 mmHg 91%
    23:00 -5°C° 0 mm 2 m/s 754 mmHg 91%

    22 Noiembrie, Joi

    Timp Temperatura Precipitaţii Vânt Presiune Umiditate
    00:00 -6°C° 0 mm 3 m/s 753 mmHg 90%
    01:00 -6°C° 0 mm 3 m/s 753 mmHg 90%
    02:00 -6°C° 0 mm 3 m/s 753 mmHg 90%
    03:00 -7°C° 0 mm 4 m/s 752 mmHg 89%
    04:00 -5°C° 0 mm 4 m/s 751 mmHg 87%
    05:00 -5°C° 0 mm 4 m/s 751 mmHg 86%
    06:00 -5°C° 0 mm 4 m/s 750 mmHg 85%
    07:00 -5°C° 0 mm 4 m/s 750 mmHg 84%
    08:00 -6°C° 0 mm 5 m/s 750 mmHg 83%
    09:00 -6°C° 0 mm 5 m/s 750 mmHg 81%
    10:00 -5°C° 0 mm 5 m/s 749 mmHg 80%
    11:00 -4°C° 0 mm 5 m/s 749 mmHg 79%
    12:00 -4°C° 0 mm 5 m/s 749 mmHg 80%
    13:00 -4°C° 0 mm 5 m/s 749 mmHg 81%
    14:00 -4°C° 0 mm 5 m/s 749 mmHg 82%
    15:00 -3°C° 0 mm 4 m/s 750 mmHg 83%
    16:00 -3°C° 0 mm 4 m/s 750 mmHg 85%
    17:00 -3°C° 0 mm 4 m/s 750 mmHg 86%
    18:00 -3°C° 0 mm 4 m/s 750 mmHg 88%
    19:00 -2°C° 0 mm 3 m/s 750 mmHg 89%
    20:00 -2°C° 0 mm 3 m/s 751 mmHg 90%
    21:00 -2°C° 0 mm 3 m/s 751 mmHg 90%
    22:00 -2°C° 0 mm 3 m/s 751 mmHg 90%
    23:00 -2°C° 0 mm 3 m/s 751 mmHg 90%
    Arată mai mult